DateTimeUTC,F1_A11,F1_S11,BsB_S11,BsG_S11,BsR_S11,BbsB_S11,BbsG_S11,BbsR_S11,BaB_A11,BaG_A11,BaR_A11,Tu_S11,T_S11,Uu_S11,U_S11,P_S11,T1_A11
2021-08-07T01:00:00Z,00000200,20000000,,,,,,,0000.09,0000.57,-000.49,18.3,25.3,03.2,02.1,0666.3,31.0
2021-08-07T01:01:00Z,00000200,20000000,,,,,,,-000.50,-000.65,0000.20,18.2,25.3,03.2,02.1,0666.3,31.0
2021-08-07T01:02:00Z,00000200,20000000,,,,,,,-000.03,-000.23,-000.18,18.2,25.3,03.1,02.0,0666.3,31.0
2021-08-07T01:03:00Z,00000200,60000000,,,,,,,-000.51,-000.53,-000.60,18.2,25.3,02.9,01.9,0666.3,31.0
2021-08-07T01:04:00Z,00000200,40000000,0000.21,0000.59,-000.06,0000.27,-000.26,0000.12,-000.87,-000.50,-000.49,18.2,25.0,02.6,01.7,0667.2,31.0
2021-08-07T01:05:00Z,00000200,00000000,0000.78,0000.22,-000.10,0000.46,0000.27,-000.08,-000.33,-000.44,-000.86,18.3,24.9,02.2,01.5,0667.3,31.0
2021-08-07T01:06:00Z,00000200,00000000,-000.48,0000.36,0000.03,-000.48,0000.32,0000.32,-000.32,-000.28,0000.73,18.2,24.9,02.1,01.4,0667.3,30.9
2021-08-07T01:07:00Z,00000200,01000000,-000.32,0000.07,-000.22,-000.14,0000.02,-000.09,-000.21,-000.65,-001.36,18.2,24.9,02.0,01.4,0667.3,30.9
2021-08-07T01:08:00Z,00000200,01000000,0000.72,0000.24,-000.08,0000.25,0000.04,-000.01,-000.28,-000.50,-000.58,18.2,24.9,01.7,01.1,0667.3,30.9
2021-08-07T01:09:00Z,00000200,01000000,-000.31,0000.17,0000.12,-000.60,0000.03,0000.01,-000.36,-000.13,0000.19,18.3,24.9,01.7,01.1,0667.3,31.0
2021-08-07T01:10:00Z,00000200,01000000,0000.39,0000.18,-000.30,-000.57,0000.43,-000.07,-000.50,-000.53,-000.62,18.3,24.9,01.6,01.0,0667.3,31.0
2021-08-07T01:11:00Z,00000200,01000000,0000.36,0000.24,-000.16,-000.08,0000.05,-000.06,-000.27,-000.30,-000.21,18.4,25.0,01.4,00.9,0667.3,31.0
2021-08-07T01:12:00Z,00000200,01000000,0000.27,0000.20,-000.03,0000.27,-000.01,0000.04,-000.31,0000.00,-000.37,18.4,25.0,01.2,00.8,0667.3,31.0
2021-08-07T01:13:00Z,00000200,01000000,0000.56,-000.08,0000.12,-000.34,-000.19,0000.06,0000.18,-000.42,-000.10,18.4,24.9,01.3,00.9,0667.3,30.9
2021-08-07T01:14:00Z,00000200,01000000,0000.68,0000.20,-000.03,0000.48,-000.05,-000.27,-000.27,-000.07,-000.61,18.3,24.9,01.2,00.8,0667.3,31.0
2021-08-07T01:15:00Z,00000200,01000000,0000.97,-000.00,-000.00,0000.10,-000.00,0000.00,-000.47,0000.05,0000.18,18.3,24.9,01.1,00.8,0667.3,31.0
2021-08-07T01:16:00Z,00000200,01000000,0000.28,0000.10,-000.35,-000.35,0000.21,-000.09,-000.32,-000.48,-000.45,18.3,24.9,01.1,00.7,0667.3,31.0
2021-08-07T01:17:00Z,00000200,01000000,0000.67,0000.64,-000.56,0000.39,0000.06,-000.33,-000.04,-000.47,0000.07,18.2,24.9,01.0,00.6,0667.3,30.9
2021-08-07T01:18:00Z,00000200,01000000,0000.40,0000.31,0000.30,0000.27,0000.25,-000.12,0000.28,0000.34,-000.21,18.2,24.8,00.8,00.6,0667.3,30.9
2021-08-07T01:19:00Z,00000200,01000000,0000.59,0000.02,-000.13,-000.36,0000.28,0000.07,0000.18,0000.53,0000.42,18.1,24.8,01.0,00.7,0667.3,30.9
2021-08-07T01:20:00Z,00000200,01000000,-000.01,0000.42,-000.02,-000.22,0000.16,0000.42,0000.45,0000.13,0000.19,18.1,24.8,01.0,00.7,0667.3,30.9
2021-08-07T01:21:00Z,00000200,01000000,0000.54,0000.56,0000.18,0000.04,0000.13,0000.11,0000.35,0000.23,0000.10,18.1,24.8,01.2,00.8,0667.3,30.9
2021-08-07T01:22:00Z,00000200,01000000,-000.28,0000.10,-000.24,-000.03,0000.13,-000.19,0000.32,0000.12,0000.17,18.0,24.7,01.2,00.8,0667.3,30.9
2021-08-07T01:23:00Z,00000200,01000000,-000.18,0000.22,0000.05,-000.05,-000.35,-000.11,0000.48,0000.50,0000.65,18.0,24.7,01.2,00.8,0667.3,30.9
2021-08-07T01:24:00Z,00000200,01000000,-000.33,0000.49,-000.21,0000.16,-000.05,-000.33,-000.25,-000.06,-000.29,18.1,24.7,01.2,00.8,0667.3,30.9
2021-08-07T01:25:00Z,00000200,01000000,0000.62,-000.01,0000.13,0000.09,0000.15,-000.12,-000.10,0000.13,0000.01,18.2,24.8,01.1,00.7,0667.2,31.0
2021-08-07T01:26:00Z,00000200,01000000,-000.04,0000.26,-000.08,-000.13,0000.14,-000.02,0000.29,-000.13,-000.21,18.3,24.8,01.0,00.7,0667.2,31.0
2021-08-07T01:27:00Z,00000200,01000000,0000.68,0000.21,-000.07,0000.28,0000.11,-000.02,-000.14,-000.06,0000.29,18.4,24.9,00.9,00.6,0667.2,31.0
2021-08-07T01:28:00Z,00000200,01000000,0000.11,0000.08,-000.21,0000.33,0000.18,-000.14,-000.31,0000.02,-000.05,18.4,24.9,01.0,00.7,0667.2,31.0
2021-08-07T01:29:00Z,00000200,01000000,0001.17,0000.17,0000.02,-000.01,0000.10,0000.13,0000.34,0000.15,-000.16,18.4,24.9,01.1,00.7,0667.2,31.0
2021-08-07T01:30:00Z,00000200,01000000,0000.03,0000.13,0000.00,0000.02,-000.04,0000.08,0000.77,0000.62,0000.89,18.4,24.9,01.2,00.8,0667.2,31.0
2021-08-07T01:31:00Z,00000200,01000000,-000.40,-000.04,-000.44,-000.34,-000.03,-000.37,-000.50,-000.29,-000.29,18.3,24.8,01.4,00.9,0667.2,30.9
2021-08-07T01:32:00Z,00000200,01000000,0000.28,-000.02,-000.05,-000.23,0000.05,-000.02,-000.26,-000.32,-000.31,18.3,24.8,01.2,00.8,0667.2,31.0
2021-08-07T01:33:00Z,00000200,01000000,0000.32,0000.23,-000.30,0000.15,-000.11,-000.08,-000.07,-000.35,-000.32,18.2,24.8,01.1,00.7,0667.2,30.9
2021-08-07T01:34:00Z,00000200,01000000,0000.05,0000.23,-000.37,0000.35,-000.07,-000.00,0000.50,0000.20,0000.33,18.2,24.8,01.2,00.8,0667.2,30.9
2021-08-07T01:35:00Z,00000200,01000000,-000.56,-000.28,-000.20,-000.45,0000.19,-000.26,0000.02,0000.59,0000.02,18.2,24.8,01.2,00.8,0667.2,30.9
2021-08-07T01:36:00Z,00000200,01000000,-000.26,0000.05,-000.18,-000.16,0000.17,-000.06,0000.27,0000.03,0000.47,18.1,24.7,01.3,00.9,0667.3,30.9
2021-08-07T01:37:00Z,00000200,01000000,-000.13,0000.11,-000.10,-000.60,0000.12,-000.16,0000.25,0000.17,0000.21,18.1,24.7,01.4,00.9,0667.2,30.9
2021-08-07T01:38:00Z,00000200,01000000,0000.19,0000.26,0000.23,0000.09,0000.18,0000.27,0000.51,0000.73,0000.76,18.1,24.7,01.5,01.0,0667.2,30.9
2021-08-07T01:39:00Z,00000200,01000000,0000.05,0000.05,-000.17,-000.02,0000.20,0000.06,0000.39,0000.38,0000.42,18.1,24.7,01.5,01.0,0667.2,30.9
2021-08-07T01:40:00Z,00000200,01000000,-000.81,0000.33,0000.12,-000.27,0000.04,-000.11,-000.13,0000.00,0000.07,18.2,24.7,01.5,01.0,0667.2,30.9
2021-08-07T01:41:00Z,00000200,01000000,0000.44,-000.08,-000.45,-000.07,-000.04,0000.10,-000.26,-000.32,-000.48,18.3,24.8,01.5,01.0,0667.2,31.0
2021-08-07T01:42:00Z,00000200,01000000,0000.16,0000.05,0000.19,-000.49,0000.02,0000.08,0000.14,0000.27,0000.32,18.4,24.8,01.4,01.0,0667.3,31.0
2021-08-07T01:43:00Z,00000200,01000000,-000.76,0000.08,-000.29,-000.28,-000.10,-000.06,0000.58,0000.16,-000.00,18.4,24.8,01.5,01.0,0667.2,31.0
2021-08-07T01:44:00Z,00000200,01000000,-000.30,-000.24,-000.22,-000.09,-000.04,-000.10,0000.63,0000.59,0000.39,18.4,24.8,01.7,01.2,0667.2,30.9
2021-08-07T01:45:00Z,00000200,01000000,0000.02,0000.15,-000.19,-000.20,-000.06,-000.10,-000.52,-000.09,0000.14,18.4,24.8,01.8,01.2,0667.2,31.0
2021-08-07T01:46:00Z,00000200,01000000,0000.15,0000.06,-000.15,0000.05,0000.15,0000.13,-000.77,-000.81,-000.89,18.3,24.8,01.7,01.1,0667.2,31.0
2021-08-07T01:47:00Z,00000200,01000000,0000.39,0000.24,-000.14,-000.19,0000.04,0000.23,0000.12,-000.15,-000.32,18.3,24.8,01.4,01.0,0667.2,30.9
2021-08-07T01:48:00Z,00000200,01000000,-000.02,0000.21,-000.08,0000.03,0000.05,-000.01,-000.70,-000.70,-000.15,18.2,24.8,01.4,01.0,0667.2,30.9
2021-08-07T01:49:00Z,00000200,01000000,-000.05,-000.06,-000.07,0000.13,-000.21,-000.25,0000.20,0000.12,0000.20,18.2,24.7,01.4,00.9,0667.2,30.9
2021-08-07T01:50:00Z,00000200,01000000,0000.07,-000.41,-000.29,-000.08,-000.26,-000.07,-000.24,0000.02,-000.53,18.2,24.7,01.3,00.9,0667.2,30.9
2021-08-07T01:51:00Z,00000200,01000000,-000.01,-000.32,0000.22,-000.50,0000.24,0000.16,0000.46,0000.30,0000.17,18.1,24.7,01.5,01.0,0667.2,30.9
2021-08-07T01:52:00Z,00000200,01000000,-000.04,-000.13,0000.07,-000.73,0000.31,0000.36,-000.07,0000.17,0000.49,18.1,24.7,01.4,00.9,0667.2,30.9
2021-08-07T01:53:00Z,00000200,01000000,-000.11,0000.04,0000.24,0000.24,0000.00,0000.14,0001.07,0000.86,0000.43,18.1,24.6,01.5,01.0,0667.2,30.9
2021-08-07T01:54:00Z,00000200,01000000,-000.36,0000.35,-000.13,-000.47,0000.36,0000.02,0000.09,0000.04,0000.39,18.1,24.6,01.5,01.0,0667.2,30.9
2021-08-07T01:55:00Z,00000200,01000000,0000.28,-000.08,-000.06,-000.04,-000.06,0000.14,-000.29,-000.44,-000.26,18.2,24.7,01.6,01.1,0667.2,30.9
2021-08-07T01:56:00Z,00000200,01000000,-000.21,0000.00,-000.05,0000.18,-000.18,-000.10,-000.20,-000.13,-000.25,18.3,24.7,01.5,01.0,0667.2,31.0
2021-08-07T01:57:00Z,00000200,40000000,,,,,,,0000.46,0000.60,0000.57,18.4,24.8,01.6,01.1,0667.3,31.0
2021-08-07T01:58:00Z,00000200,60000000,,,,,,,-000.69,-000.35,-000.31,18.0,24.9,01.6,01.0,0666.2,31.0
2021-08-07T01:59:00Z,00000200,20000000,,,,,,,-000.55,-000.68,-000.70,18.0,25.0,01.5,01.0,0666.2,30.9
